Regional Weather Roundup
Issued by NWS

Home | Current Version | Previous Version | Graphics & Text | Print | Product List | Glossary On
Versions: 1 2 3 4 5 6 7 8 9 10 11 12 13 14 15 16 17 18 19 20 21 22 23 24 25 26 27 28 29 30 31 32 33 34 35 36 37 38 39 40 41 42 43 44 45 46 47 48 49 50
000
ASUS43 KMPX 221001
RWRMN
WEATHER ROUNDUP FOR MINNESOTA
NATIONAL WEATHER SERVICE TWIN CITIES/CHANHASSEN MN
500 AM CDT SAT JUL 22 2017


NOTE: "FAIR" INDICATES FEW OR NO CLOUDS BELOW 12,000 FEET WITH NO
SIGNIFICANT WEATHER AND/OR OBSTRUCTIONS TO VISIBILITY. N/A MEANS
CURRENT SKY AND/OR WEATHER CONDITIONS ARE NOT AVAILABLE.

MNZ060>063-068>070-221100-
   Twin Cities Metro

CITY           SKY/WX    TMP DP  RH WIND       PRES   REMARKS
TWIN CITIES    CLOUDY    72  65  78 W3        29.79R
ST PAUL        MOCLDY    70  67  90 NE3       29.79R
CRYSTAL        CLOUDY    69  63  81 N3        29.79R
BLAINE         CLOUDY    70  66  88 CALM      29.80R
LAKEVILLE      PTCLDY    66  66 100 SW3       29.78S
EDEN PRAIRIE   CLOUDY    71  66  84 SW8       29.78R
SOUTH ST PAUL  MOCLDY    70  66  87 CALM      29.79R
LAKE ELMO      MOCLDY    68  64  88 CALM      29.82R
$$
MNZ001>005-007-008-013>017-022>024-027-028-221100-
   Northwest Minnesota

CITY           SKY/WX    TMP DP  RH WIND       PRES   REMARKS
BEMIDJI        RAIN      64  63  99 SW9       29.80F
HALLOCK        CLEAR     64  63  94 S5        29.76R
ROSEAU         CLOUDY    61  55  82 E7        29.73F
WARROAD        CLOUDY    63  57  82 S3        29.76F
CROOKSTON      CLOUDY    66  64  94 CALM      29.79F
FOSSTON        CLOUDY    64  63  94 S8        29.80S
DETROIT LAKES  RAIN      64  63  94 CALM      29.88S
MOORHEAD       CLOUDY    66  63  88 SE8       29.81F
PARK RAPIDS    CLOUDY    67  64  90 NW8       29.85R THUNDER
MAHNOMEN       PTSUNNY   66  63  90 SE13      29.78F
$$
MNZ006-009>011-018-025>026-221100-
   North Central Minnesota

CITY           SKY/WX    TMP DP  RH WIND       PRES   REMARKS
BAUDETTE       CLOUDY    59  59 100 CALM      29.78F
FLAG ISLAND    CLOUDY    66  61  82 CALM      29.75F
INTL FALLS     MOCLDY    56  54  93 S3        29.80F
BIG FORK       CLOUDY    63  61  94 CALM      29.83R
LONGVILLE      MOCLDY    63  63 100 CALM      29.83R FOG
GRAND RAPIDS   CLOUDY    64  63  96 CALM      29.84R
CRANE LAKE     PTCLDY    50  48  93 CALM      29.85S FOG
ORR            PTCLDY    55  52  88 CALM      29.82R FOG
COOK           CLOUDY    54  54 100 CALM      29.84R
WALKER         PTSUNNY   62  62 100 CALM      29.83R FOG
$$
MNZ012-019>021-037-221100-
   Northeast Minnesota

CITY           SKY/WX    TMP DP  RH WIND       PRES   REMARKS
DULUTH         FOG       60  60 100 SE5       29.83S VSB 1/2
ELY            PTCLDY    52  52 100 CALM      29.84R
HIBBING        FOG       59  59 100 CALM      29.83R VSB 1/4
EVELETH        CLOUDY    60  57  90 CALM      29.83S
DULUTH HARBOR  CLOUDY    63  57  82 E8        29.82F
TWO HARBORS    CLOUDY    59  54  82 NE5       29.80F
SILVER BAY     PTCLDY    61  55  82 N3        29.81S
GRAND MARAIS     N/A     67  53  61 NE8       29.80S
G MARAIS ARPRT CLEAR     57  46  67 N7        29.85S
$$
MNZ029>031-032-039>041-046>048-054>057-064-221100-
   West Central Minnesota

CITY           SKY/WX    TMP DP  RH WIND       PRES   REMARKS
FERGUS FALLS   TSTM      64  64 100 N29G37    29.84R VSB 1
WHEATON        MOCLDY    68  66  94 SW5       29.83R
MORRIS         PTCLDY    70  66  88 E3        29.79R
ALEXANDRIA     PTCLDY    69  67  93 SW7       29.83R
ELBOW LAKE     FAIR      66  66  99 W3        29.84R
WADENA         MOCLDY    64  64 100 N17       29.85R
GLENWOOD       PTCLDY    68  66  94 CALM      29.82S
APPLETON       PTCLDY    68  64  88 N5        29.80R
BENSON         CLOUDY    70  66  88 CALM      29.80R
ORTONVILLE     PTCLDY    70  64  83 W7        29.79R
MADISON        CLOUDY    73  73 100 CALM      29.79R
WILLMAR        FAIR      70  68  94 CALM      29.81R
$$
MNZ033>034-036-042>043-049>051-058-059-221100-
   Central Minnesota

CITY           SKY/WX    TMP DP  RH WIND       PRES   REMARKS
ST CLOUD       CLOUDY    67  67 100 S3        29.79R
SAUK CENTRE    CLOUDY    68  67  96 CALM      29.81S
PAYNESVILLE    CLOUDY    70  67  91 SW3       29.80R
AITKIN         FOG       61  59  94 CALM      29.82R VSB 1/2
PINE RIVER     PTCLDY    63  63 100 N3        29.89R
BRAINERD       CLOUDY    62  61  96 NE5       29.82R FOG
STAPLES        CLOUDY    64  64 100 CALM      29.81R
LONG PRAIRIE   MOCLDY    66  64  94 S5        29.81S
LITTLE FALLS   PTCLDY    64  63  94 CALM      29.81R
LITCHFIELD     CLOUDY    72  70  94 CALM      29.78F
BUFFALO        CLOUDY    70  64  82 S8        29.79S
MAPLE LAKE     CLOUDY    70  67  92 SW6       29.78F
HUTCHINSON     CLEAR     69  68  95 S6        29.79S
$$
MNZ037-044-045-052-053-221100-
   East Central Minnesota

CITY           SKY/WX    TMP DP  RH WIND       PRES   REMARKS
PRINCETON      CLOUDY    66  64  94 CALM      29.80R
MORA           CLOUDY    61  61 100 CALM      29.84R
CAMBRIDGE      CLOUDY    66  64  94 CALM      29.79S
RUSH CITY      MOCLDY    63  61  95 CALM      29.82R
MOOSE LAKE     CLOUDY    61  59  94 NE5       29.81R FOG
HINCKLEY       FAIR      61  61 100 CALM      29.82R
CLOQUET        FOG       61  59  94 CALM      29.83S VSB 1/4
MCGREGOR       CLOUDY    63  63 100 CALM      29.84R
$$
MNZ071>073-080-081-089-090-097-098-221100-
   Southwest Minnesota

CITY           SKY/WX    TMP DP  RH WIND       PRES   REMARKS
MONTEVIDEO     CLOUDY    68  66  94 CALM      29.78R
GRANITE FALLS  CLOUDY    71  68  91 CALM      29.76F
CANBY          PTCLDY    70  67  93 CALM      29.78S
MARSHALL       CLOUDY    70  67  90 CALM      29.75F
REDWOOD FALLS  CLOUDY    70  67  90 S12G24    29.72F
OLIVIA         CLOUDY    70  66  88 S9        29.75F
PIPESTONE      CLOUDY    70  66  88 SE5       29.79F
WINDOM         CLOUDY    70  68  94 SE13      29.75F
WORTHINGTON    CLOUDY    69  69 100 SE9       29.79F FOG
JACKSON        CLOUDY    70  70 100 CALM      29.82R FOG
SLAYTON        CLOUDY    69  64  86 S10G18    29.79F
$$
MNZ065>067-074>077-082>085-091>093-221100-
   South Central Minnesota

CITY           SKY/WX    TMP DP  RH WIND       PRES   REMARKS
MANKATO        CLOUDY    69  67  93 S9        29.79F
NEW ULM        CLOUDY    70  66  88 S12       29.77F
ST JAMES       LGT RAIN  70  68  94 E8        29.74F
FAIRMONT       CLOUDY    70  69  97 NE3       29.81F
GLENCOE        MOCLDY    70  70  99 CALM      29.77F
FARIBAULT      CLOUDY    70  68  94 SW8       29.81R
OWATONNA       MOCLDY    70  66  88 S8        29.80F
WASECA         CLOUDY    68  64  88 SW3       29.82S
ALBERT LEA     CLOUDY    70  68  94 CALM      29.82R FOG
$$
MNZ078>079-086>088-094>096-221100-
   Southeast Minnesota

CITY           SKY/WX    TMP DP  RH WIND       PRES   REMARKS
ROCHESTER      FOG       68  68 100 SW5       29.80R VSB 1/2
RED WING       CLOUDY    70  66  88 S3        29.77R
STANTON        CLOUDY    69  67  92 SW8       29.76S
DODGE CENTER   FOG       68  66  94 S7        29.80S VSB 1
WINONA         CLOUDY    70  68  94 CALM      29.79R
AUSTIN         CLOUDY    70  66  88 S5        29.80S FOG
PRESTON        FOG       68  67  96 S6        29.80R VSB 3/4
$$
ABBREVIATIONS USED IN REMARKS
   TC - TEMPERATURES IN CELSIUS
  WCI - WIND CHILL INDEX
   HX - HEAT INDEX
  VSB - VISIBILITY
$$



USA.gov is the U.S. government's official web portal to all federal, state and local government web resources and services.